Powrót do katalogu

CZ-2C DEB

AktywnySSO
NORAD 39627·DEBRIS·🇨🇳 China

Wystrzelony Mar 31, 2014 z Jiuquan Satellite Launch Center

Loading…

Następne Przeloty (najbliższe 24 godziny)

TLE

ŚwieżeSource: Space-Track

Epoka: Sep 14, 2026, 13:37 UTC

1 39627U 14014D   26257.56739270  .00001255  00000-0  39145-3 0  9996
2 39627  98.1366  17.4510 0150876  36.5657 324.5717 14.36135499647831

Śledź CZ-2C DEB w czasie rzeczywistym z AllMySat

Download on the App Store